Regional Weather Roundup
Issued by NWS Sioux Falls, SD

Home | Current Version | Previous Version | Text Only | Print | Product List | Glossary Off
Versions: 1 2 3 4 5 6 7 8 9 10 11 12 13 14 15 16 17 18 19 20 21 22 23 24 25 26 27 28 29 30 31 32 33 34 35 36 37 38 39 40 41 42 43 44 45 46 47 48 49 50

000
ASUS43 KFSD 270110
RWRFSD

WEATHER ROUNDUP FOR SE SOUTH DAKOTA/SW MINNESOTA/NW IOWA
NATIONAL WEATHER SERVICE SIOUX FALLS SD
800 PM CDT TUE JUL 26 2016

NOTE: "FAIR" INDICATES FEW OR NO CLOUDS BELOW 12,000 FEET WITH NO
SIGNIFICANT WEATHER AND OR OBSTRUCTIONS TO VISIBILITY.


SDZ038>040-050-052>070-270200-
SOUTHEAST SOUTH DAKOTA

CITY           SKY/WX    TMP DP  RH WIND       PRES   REMARKS
BROOKINGS      CLOUDY    76  71  85 E6        29.95F
CHAMBERLAIN    DRIZZLE   74  72  93 W9        29.97R
HURON          MOCLDY    79  66  64 SE12      29.89F
MADISON        FAIR      77  72  83 S9        29.96F
MITCHELL       CLOUDY    84  62  47 S12       29.93F
SIOUX FALLS    CLOUDY    82  66  58 S13       29.97S
WINNER         TSTM      71  66  84 NE23G32   29.92F
YANKTON        CLEAR     82  64  54 SE13      29.95R
$$

MNZ071-072-080-081-089-090-097-098-270200-
SOUTHWEST MINNESOTA

CITY           SKY/WX    TMP DP  RH WIND       PRES   REMARKS
FAIRMONT       CLEAR     79  66  65 S7        29.99F
JACKSON        PTCLDY    79  64  61 S9        30.00F
LUVERNE        PTCLDY    79  66  65 S7        29.99S
MARSHALL       CLOUDY    82  71  69 S7        29.96S
MONTEVIDEO     PTCLDY    81  64  57 CALM      29.97S
REDWOOD FALLS  CLOUDY    82  69  64 S8        29.94F
TRACY          CLOUDY    82  70  66 S8        29.97F
WINDOM         CLOUDY    81  66  61 S8        29.98F
WORTHINGTON    MOCLDY    79  69  71 S9        29.99F
$$

IAZ001>003-012>014-020>022-031-032-NEZ013-014-SDZ071-270200-
NORTHWEST IOWA

CITY           SKY/WX    TMP DP  RH WIND       PRES   REMARKS
CHEROKEE       CLEAR     80  68  65 SE5       30.00S
DENISON        CLEAR     79  70  73 CALM      29.99S
ESTHERVILLE    CLEAR     76  70  82 S7        30.00F
LE MARS        CLEAR     82  68  61 SE6       30.00R
SHELDON        CLEAR     79  72  78 SE7       29.98F
SIOUX CITY     CLEAR     83  66  56 SE8       29.98F
SPENCER        CLEAR     78  68  71 S8        30.01S
STORM LAKE     CLEAR     77  70  78 SE6       30.03S
$$

ABBREVIATIONS USED IN REMARKS
   TC - TEMPERATURE IN CELSIUS
  WCI - WIND CHILL INDEX
   HX - HEAT INDEX
  VSB - VISIBILITY





USA.gov is the U.S. government's official web portal to all federal, state and local government web resources and services.